Flag for Austria Weather past 2 weeks in Eisenstadt, Burgenland, Austria

Now
57 °F

Overcast.


Feels Like: 57 °F
Forecast: 52 / 69 °F
Wind: 1 mph from North

Location: Eisenstadt

Current Time: Sep 16, 2014 at 5:31:41 AM

Latest Report: Sep 16, 2014 at 4:00 AM


Visibility: 6 mi

Pressure: 30.05 "Hg

Humidity: 96%

Dew point: 56 °F

Location of EisenstadtLocation

Historic Weather in Eisenstadt — Graph

°F

Eisenstadt temperature yesterday

Maximum temperature yesterday: 66 °F (at 2:00 PM)
Minimum temperature yesterday: 60 °F (at 8:00 AM)
Average temperature yesterday: 62 °F

Past Weeks' High & Low Weather Summary

 TemperatureHumidityPressure
High78 °F (Sep 9, 2:00 PM)99% (Sep 9, 9:00 AM)30.05 "Hg (Sep 9, 9:00 AM)
Low54 °F (Sep 1, 6:00 AM)54% (Sep 9, 2:00 PM)29.77 "Hg (Sep 12, 5:00 AM)
Average62 °F84%29.96 "Hg
* Reported Sep 1 4:00 AM — Sep 16 4:00 AM, Eisenstadt, Weather by CustomWeather, © 2014

Note: Actual official high and low records may vary slightly from our data, if they occured in-between our weather recording intervals... More about our weather records

Advertising

Eisenstadt weather history for previous 24 hours

 ConditionsComfort  
Time TempWeatherWind HumidityBarometerVisibility
4:00 AM
Sep 16
57 °FOvercast.1 mph96%30.05 "Hg6 mi
3:00 AM58 °FCool.2 mph96%30.04 "HgN/A
2:00 AM58 °FPassing clouds.2 mph95%30.05 "Hg6 mi
1:00 AM58 °FCool.3 mph96%30.04 "HgN/A
12:00 AM59 °FCool.3 mph96%30.04 "HgN/A
11:00 PM
Sep 15
61 °FPassing clouds.1 mph96%30.04 "Hg5 mi
10:00 PM62 °FCool.2 mph94%30.05 "HgN/A
9:00 PM62 °FCool.5 mph95%30.04 "HgN/A
8:00 PM62 °FPassing clouds.5 mph95%30.03 "Hg5 mi
7:00 PM62 °FOvercast.2 mph95%30.02 "Hg5 mi
6:00 PM63 °FMild.3 mph95%30.02 "HgN/A
5:00 PM63 °FRain. Overcast.1 mph95%30.02 "Hg5 mi
4:00 PM64 °FSprinkles. Cloudy.2 mph88%30.02 "HgN/A
3:00 PM66 °FMild.2 mph83%30.02 "HgN/A
2:00 PM66 °FOvercast.1 mph79%30.03 "Hg6 mi
1:00 PM64 °FMild.3 mph85%30.03 "HgN/A
12:00 PM61 °FFog.2 mph94%30.04 "HgN/A
11:00 AM62 °FOvercast.5 mph90%30.03 "Hg6 mi
10:00 AM61 °FSprinkles. Cloudy.3 mph92%30.03 "HgN/A
9:00 AM60 °FCool.3 mph92%30.03 "HgN/A
8:00 AM60 °FOvercast.3 mph93%30.01 "Hg6 mi
6:00 AM60 °FOvercast.3 mph93%30.00 "Hg6 mi
5:00 AM60 °FOvercast.2 mph94%30.00 "Hg6 mi
Weather by CustomWeather, © 2014

See weather overviewHow to use our weather pages